Regional Weather Roundup
Issued by NWS

Home | Current Version | Previous Version | Graphics & Text | Print | Product List | Glossary On
Versions: 1 2 3 4 5 6 7 8 9 10 11 12 13 14 15 16 17 18 19 20 21 22 23 24 25 26 27 28 29 30 31 32 33 34 35 36 37 38 39 40 41 42 43 44 45 46 47 48 49 50
000
ASUS43 KOAX 242210
RWRNE

WEATHER ROUNDUP FOR NEBRASKA
NATIONAL WEATHER SERVICE OMAHA NE
500 PM CDT FRI OCT 24 2014

NOTES: SATELLITE DATA IS BEING USED TO AUGMENT CLOUD COVER ABOVE
       12000 FEET.
       "FAIR" INDICATES FEW OR NO CLOUDS BELOW 12,000 FEET WITH NO
       SIGNIFICANT WEATHER AND/OR OBSTRUCTIONS TO VISIBILITY.

  * THESE STATIONS DO NOT REPORT WEATHER SUCH AS RAIN...SNOW OR FOG.

NEZ001>004-019>022-054>056-242300-
NEBRASKA PANHANDLE

CITY           SKY/WX    TMP DP  RH WIND       PRES   REMARKS
SCOTTSBLUFF    SUNNY     83  32  16 W14       30.03R
ALLIANCE       SUNNY     80  35  19 W12       30.02R
CHADRON        SUNNY     78  34  20 CALM      29.98S
KIMBALL        SUNNY     80  26  13 W16       30.08S
SIDNEY         SUNNY     81  31  16 NW9       30.08R
$$

NEZ057>060-069>072-079>082-242300-
SOUTHWEST NEBRASKA

CITY           SKY/WX    TMP DP  RH WIND       PRES   REMARKS
NORTH PLATTE   SUNNY     82  36  19 NW6       29.98R
IMPERIAL       SUNNY     84  31  14 N8        30.03R
LEXINGTON      SUNNY     84  33  15 W9        29.97S
MCCOOK         SUNNY     87  28  12 W10       29.99R
OGALLALA       SUNNY     84  32  15 NW14      30.02S
$$

NEZ005>010-023>029-035>040-094-242300-
NORTH CENTRAL NEBRASKA

CITY           SKY/WX    TMP DP  RH WIND       PRES   REMARKS
VALENTINE      SUNNY     81  32  17 N3        29.96R
AINSWORTH      SUNNY     77  32  19 CALM      29.97S
BROKEN BOW     SUNNY     83  37  19 NW6       29.96R
O`NEILL        MOSUNNY   76  37  24 E3        29.96R
ORD            MOSUNNY   77  39  25 SE3       29.94R
THEDFORD       SUNNY     82  34  17 N5        29.99R
$$

NEZ041-046>049-061>064-073>077-083>087-242300-
SOUTH CENTRAL NEBRASKA

CITY           SKY/WX    TMP DP  RH WIND       PRES   REMARKS
GRAND ISLAND   SUNNY     79  47  32 N6        29.95R
AURORA         SUNNY     77  45  31 NW6       29.94R
HASTINGS       SUNNY     80  40  23 W6        29.95R
HEBRON         SUNNY     79  51  37 W8        29.93R
HOLDREGE       SUNNY     84  31  15 CALM      29.96S
KEARNEY *      SUNNY     82  37  20 W8        29.96S
YORK           SUNNY     75  50  41 NW6       29.93S
$$

NEZ011>018-030>034-042>045-242300-
NORTHEAST NEBRASKA

CITY           SKY/WX    TMP DP  RH WIND       PRES   REMARKS
NORFOLK        MOSUNNY   73  46  38 CALM      29.93R
ALBION         PTSUNNY   75  35  23 CALM      29.94S HAZE
BLAIR          MOSUNNY   76  55  47 SW5       29.91S
COLUMBUS *     PTSUNNY   75  46  35 CALM      29.94S
FREMONT        MOSUNNY   74  52  46 CALM      29.92R
TEKAMAH        MOSUNNY   77  50  38 W6        29.90R
WAYNE          MOSUNNY   77  38  24 N5        29.92R
$$

NEZ050>053-065>068-078-088>093-242300-
SOUTHEAST NEBRASKA

CITY           SKY/WX    TMP DP  RH WIND       PRES   REMARKS
LINCOLN        PTSUNNY   76  56  49 NW3       29.93R
OMAHA EPPLEY   PTSUNNY   74  58  57 SW3       29.90S
BEATRICE       MOSUNNY   78  58  50 SW10G16   29.91R
FALLS CITY     SUNNY     79  63  57 SW13      29.89S
NEBRASKA CITY  PTSUNNY   74  56  52 W7        29.91R
PLATTSMOUTH    PTSUNNY   73  55  53 W3        29.91R
$$

NEZ044-045-051>053-067-242300-
OMAHA AREA

CITY           SKY/WX    TMP DP  RH WIND       PRES   REMARKS
OMAHA EPPLEY   PTSUNNY   74  58  57 SW3       29.90S
BLAIR          MOSUNNY   76  55  47 SW5       29.91S
FREMONT        MOSUNNY   74  52  46 CALM      29.92R
MILLARD        MOSUNNY   74  58  57 CALM      29.90S
OFFUTT AFB     MOSUNNY   73  64  75 NW1       29.90S
PLATTSMOUTH    PTSUNNY   73  55  53 W3        29.91R
WAHOO          FAIR      75  47  37 CALM      29.92R
$$



USA.gov is the U.S. government's official web portal to all federal, state and local government web resources and services.